Home   Weather   Bahía Blanca   Past weeks

Flag for Argentina Past Weather in Bahía Blanca, Buenos Aires, Argentina — Yesterday and Last 2 Weeks

Now
45 °F

Sunny.


Feels Like: 45 °F
Forecast: 53 / 76 °F
Wind: No wind

Location: Mar Del Plata Aerodrome

Current Time: Apr 29, 2017 at 8:58:07 am

Latest Report: Apr 29, 2017 at 8:00 am


Visibility: 10 mi

Pressure: 30.09 "Hg

Humidity: 93%

Dew Point: 43 °F

Location of Bahía BlancaLocation

Past Weather in Bahía Blanca — Graph

°F

Bahía Blanca Temperature Yesterday

Maximum temperature yesterday: 72 °F (at 3:00 pm)
Minimum temperature yesterday: 50 °F (at 4:00 am)
Average temperature yesterday: 59 °F

High & Low Weather Summary for the Past Weeks

 TemperatureHumidityPressure
High72 °F (Apr 19, 2:00 pm)100% (Apr 18, 12:00 am)30.39 "Hg (Apr 18, 12:00 am)
Low41 °F (Apr 22, 6:00 am)40% (Apr 22, 1:00 pm)29.42 "Hg (Apr 26, 5:00 am)
Average58 °F79%29.98 "Hg
* Reported Apr 14 8:00 am — Apr 29 8:00 am, Bahía Blanca, Weather by CustomWeather, © 2017

Note: Actual official high and low records may vary slightly from our data, if they occured in-between our weather recording intervals... More about our weather records

Advertising

Bahía Blanca Weather History for the Previous 24 Hours

Scroll right to see more
 ConditionsComfort  
Time TempWeatherWind HumidityBarometerVisibility
8:00 am
Sat, Apr 29
45 °FSunny.No wind93%30.09 "Hg10 mi
7:00 am45 °FClear.3 mph93%30.09 "Hg10 mi
6:00 am46 °FClear.3 mph93%30.09 "Hg10 mi
5:00 am46 °FClear.No wind93%30.07 "Hg10 mi
3:00 am48 °FClear.No wind94%30.07 "Hg10 mi
2:00 am50 °FClear.3 mph94%30.07 "Hg10 mi
1:00 am52 °FClear.No wind88%30.07 "Hg10 mi
12:00 am50 °FClear.No wind94%30.07 "Hg10 mi
11:00 pm
Fri, Apr 28
52 °FClear.No wind94%30.04 "Hg10 mi
10:00 pm54 °FClear.No wind88%30.04 "Hg10 mi
9:00 pm55 °FClear.No wind82%30.01 "Hg10 mi
8:00 pm57 °FClear.No wind88%29.98 "Hg5 mi
7:00 pm61 °FClear.No wind83%29.98 "Hg4 mi
6:00 pm68 °FSunny.No wind64%29.95 "Hg10 mi
5:00 pm70 °FSunny.6 mph53%29.95 "Hg10 mi
4:00 pm72 °FSunny.8 mph50%29.92 "Hg10 mi
3:00 pm72 °FSunny.8 mph50%29.92 "Hg10 mi
2:00 pm70 °FSunny.8 mph53%29.92 "Hg10 mi
1:00 pm70 °FSunny.10 mph53%29.92 "Hg10 mi
12:00 pm66 °FSunny.12 mph56%29.92 "Hg10 mi
11:00 am66 °FSunny.12 mph56%29.92 "Hg10 mi
10:00 am63 °FSunny.9 mph56%29.92 "Hg10 mi
9:00 am54 °FSunny.6 mph77%29.89 "Hg10 mi
8:00 am50 °FSunny.7 mph88%29.86 "Hg10 mi
Weather by CustomWeather, © 2017

See weather overviewHow to use our weather pages